Погода в Угледаре

Украина / Донецкая область     47°46′44″N   37°14′53″E
темп.,
°C
ветер,
м/с
пор.,
м/с
влажн.,
%
обл.,
%
осадки,
мм/ч
давл.,
гПа
погр.,
м
26 мая, чт
чт2600:00+12юз336499 0.0 101827
03:00+11зюз3368100 0.0 101933
06:00+11з387391 0.0 1018166
09:00+18зюз455646 0.0 1018573
12:00+21юз6742100 0.0 10171999
15:00+19юз81052100 0.0 10161670
18:00+14юз61272100 0.6 1016723
21:00+12зюз51286100 1.1 1017621
27 мая, пт
пт2700:00+9юз47945 0.0 1016143
03:00+9юз499713 0.0 1016179
06:00+11зюз512940 0.0 1016328
09:00+17з710660 0.0 1016938
12:00+21з8115130 0.0 10151966
15:00+19з51061100 0.0 1015640
18:00+19зсз366266 0.1 1015716
21:00+17юз3369100 0.1 101549
28 мая, сб
сб2800:00+16ююз367596 0.0 1014135
03:00+13юз4118225 0.0 1014209
06:00+14юз513760 0.0 1014339
09:00+20юз81255100 0.0 1013942
12:00+21юз81052100 0.0 10131195
15:00+22юз79525 0.0 10131437
18:00+22ююз685952 0.0 10131057
21:00+16ю4107428 0.0 1013189
29 мая, вс
вс2900:00+14ю48765 0.0 1013131
03:00+13ююз477775 0.0 1013108
06:00+14юз358015 0.0 1014115
09:00+20зсз346452 0.0 1015649
12:00+22ссз225941 0.0 10151328
15:00+22с436758 0.6 1016832
18:00+20ссв467499 1.1 1016258
21:00+16св48825 1.1 1017157
30 мая, пн
пн3000:00+15всв499016 0.0 1017184
03:00+14всв410915 0.0 1017202
06:00+15в511885 0.0 1016246
09:00+21вюв68685 0.0 1016535
12:00+26вюв675280 0.0 10151329
15:00+27юв6748100 0.0 10141598
18:00+25юв4760100 0.0 1013569
21:00+21в41175100 0.0 1013209